DECAYED
Showing default

FLOCK 4Q 5, 58325 (Decayed)

Orbit data source: Space-Track

FLOCK 4Q 5, 58325 was a payload satellite owned by Planet (US) in LEO that was launched on Sat, 11 Nov 2023 UTC via an FALCON 9 launch vehicle from the Air Force Western Test Range (AFWTR). Payload-class satellites include a variety of spacecraft equipped with specific instruments for various scientific and technological missions. These include communications satellites like Starlink; space stations such as the ISS; scientific satellites like the Hubble; Earth observation satellites from companies like Planet Labs, Umbra, and HawkEye 360; GPS; miniature CubeSats for education and research; and military/defense satellites.

Not visible in the next 10 days
Identifier
58325, 2023-174BX
Orbit
Decayed
Country
Flag of USUS
Related business
Manufacturer
Planet
Mission
Decayed Commercial Imaging
Bus & Motor
CUBESAT 3U, Unknown motor
Mass
5.7 kg wet, 5.7 kg dry
Launch date (UTC)
2023-11-11 (3 years ago)
Launch vehicle
FALCON 9
Launch site
Air Force Western Test Range (AFWTR)
Object type
Payload
Rocket body
Debris
Shape & HBR
Box + 2 Pan, 1.0 m
Radar Cross Section
0.072 m², Medium (>0.1 m² and < 1m²)

Expand to show TLE details & history
Last TLE update: 1 year ago

TLE from 1 year ago
0 FLOCK 4Q 5
1 58325U 23174BX  25107.39899845  .16661284  25605-5  58502-3 0  9990
2 58325  97.3858 195.9171 0013374 265.2290  94.7484 16.43145354 80710
Epoch: 2025-04-17T09:34Z
TLE epoch observation values (Epoch: 2025-04-17T09:34:33.466Z)
Latitude
0.00001°
Longitude
-153.4938°
Altitude
161.44 km
Speed
7.809 km/s
True Right ascension
13h 03m 40s
True Declination
0° 00' 00"
Sunlit
Object was in full shadow at epoch
Visualization orbit readout
Latitude
Unknown
Longitude
Unknown
Altitude
Unknown
Speed
Unknown
Apparent Right ascension
Unknown
Apparent Declination
Unknown
Sunlit
N/A
Visualization observer readout
Local Sidereal Time
12:31:22
Azimuth
Unknown
Elevation
Unknown
Doppler factor
Unknown
Orbital elements
Apogee altitude
162.988 km
Perigee altitude
145.515 km
Semi-major axis
6,532.389 km
Eccentricity
0.00134
Inclination
97.3858°
RAAN
195.9171°
Arg. of periapsis
265.229°
True anomaly
94.90111°
Mean anomaly
94.7484°
Eccentric anomaly
94.82476°
Mean motion
4.11088 °/min
Orbital period
87.57 mins
BSTAR
0.00058502
Loading maneuver chart data...
Computing Atmospheric mass density...

Documentation

Showing up to 5 results
|